{"data":{"norad_id":65197,"epoch":"2026-09-20T21:01:07.968288Z","epoch_age_seconds":87707,"freshness":"FRESH","line1":"1 65197U 25175Z   26263.87578667  .00013413  00000+0  41697-3 0  9992","line2":"2 65197  97.2816 132.9049 0002383  89.5541 270.5975 15.33450171 62192","mean_motion":15.33450171,"eccentricity":0.0002383,"inclination_deg":97.2816,"raan_deg":132.9049,"arg_perigee_deg":89.5541,"mean_anomaly_deg":270.5975,"bstar":0.00041697,"rev_number":6219,"period_min":93.905887992496,"perigee_km":463.89694394419,"apogee_km":467.15863458275,"semimajor_km":6843.6647892635,"source":"CELESTRAK","updated_at":"2026-09-21T09:00:35.532588Z"}}